QPF
0.00 0.00 0.00 0.00 0.00 0.00 0.00 0.00 0.00 0.00 0.00 0.00 0.00 0.00 0.00 0.00 0.00 0.00 0.00 0.00 0.00 0.01 0.00 0.00 0.01 0.01 0.00 0.00 0.01 0.00 0.00 0.01 0.03 0.04 0.05 0.05 0.03 0.02 0.02 0.01 0.00 0.00 0.00
0.00 0.00 0.00 0.00 0.00 0.00 0.00 0.00 0.00 0.00 0.00 0.00 0.00 0.00 0.00 0.00 0.00 0.00 0.00 0.01 0.01 0.01 0.01 0.00 0.00 0.00 0.00 0.00 0.00 0.00 0.01 0.01 0.04 0.06 0.06 0.07 0.07 0.05 0.04 0.03 0.01 0.00 0.00
0.00 0.00 0.00 0.00 0.00 0.00 0.00 0.00 0.00 0.00 0.00 0.00 0.00 0.01 0.01 0.01 0.01 0.00 0.00 0.01 0.01 0.01 0.00 0.00 0.00 0.00 0.00 0.00 0.00 0.00 0.01 0.02 0.04 0.06 0.06 0.04 0.05 0.05 0.04 0.03 0.01 0.00 0.00
0.00 0.00 0.00 0.00 0.00 0.00 0.00 0.00 0.00 0.00 0.00 0.00 0.00 0.00 0.00 0.00 0.01 0.00 0.00 0.00 0.00 0.00 0.00 0.00 0.00 0.00 0.00 0.00 0.00 0.00 0.01 0.02 0.04 0.09 0.10 0.08 0.06 0.05 0.02 0.01 0.00 0.00 0.00
0.00 0.00 0.00 0.00 0.00 0.00 0.00 0.00 0.00 0.00 0.00 0.00 0.00 0.00 0.00 0.00 0.00 0.00 0.00 0.00 0.00 0.00 0.00 0.00 0.00 0.00 0.00 0.00 0.00 0.00 0.00 0.02 0.05 0.11 0.23 0.20 0.12 0.08 0.03 0.01 0.00 0.00 0.00
0.00 0.00 0.00 0.00 0.00 0.00 0.00 0.00 0.00 0.00 0.00 0.00 0.00 0.00 0.00 0.00 0.00 0.00 0.00 0.00 0.00 0.00 0.00 0.00 0.00 0.00 0.00 0.00 0.00 0.00 0.00 0.02 0.05 0.12 0.40 0.45 0.20 0.10 0.05 0.01 0.00 0.00 0.00
0.00 0.00 0.00 0.00 0.00 0.00 0.00 0.00 0.00 0.00 0.00 0.00 0.00 0.00 0.01 0.00 0.00 0.00 0.00 0.00 0.00 0.00 0.00 0.00 0.00 0.00 0.00 0.00 0.00 0.00 0.01 0.03 0.06 0.13 0.31 0.32 0.21 0.11 0.05 0.03 0.01 0.00 0.00
0.00 0.00 0.00 0.00 0.00 0.00 0.00 0.00 0.00 0.00 0.00 0.00 0.01 0.01 0.01 0.00 0.00 0.00 0.00 0.00 0.00 0.00 0.00 0.00 0.00 0.00 0.00 0.00 0.00 0.00 0.01 0.03 0.07 0.16 0.33 0.20 0.12 0.05 0.04 0.02 0.01 0.01 0.00
0.00 0.00 0.00 0.00 0.00 0.00 0.00 0.00 0.00 0.00 0.00 0.00 0.00 0.00 0.00 0.00 0.00 0.00 0.00 0.00 0.00 0.00 0.00 0.00 0.00 0.00 0.00 0.00 0.00 0.00 0.01 0.02 0.06 0.12 0.13 0.08 0.04 0.02 0.01 0.01 0.00 0.00 0.00
0.00 0.00 0.00 0.00 0.00 0.00 0.00 0.00 0.00 0.00 0.00 0.00 0.00 0.00 0.00 0.00 0.00 0.00 0.00 0.00 0.00 0.00 0.00 0.00 0.00 0.00 0.00 0.00 0.00 0.00 0.01 0.02 0.04 0.05 0.07 0.05 0.03 0.01 0.01 0.00 0.00 0.00 0.00
0.00 0.00 0.00 0.00 0.00 0.00 0.00 0.00 0.00 0.00 0.00 0.00 0.00 0.00 0.00 0.00 0.00 0.00 0.00 0.00 0.00 0.00 0.00 0.00 0.00 0.00 0.00 0.00 0.00 0.00 0.00 0.01 0.03 0.06 0.06 0.06 0.02 0.01 0.00 0.00 0.00 0.00 0.00
0.00 0.00 0.00 0.00 0.00 0.00 0.00 0.00 0.00 0.00 0.00 0.00 0.00 0.00 0.00 0.00 0.01 0.01 0.01 0.01 0.01 0.00 0.00 0.00 0.00 0.00 0.00 0.00 0.00 0.00 0.00 0.01 0.03 0.07 0.05 0.03 0.01 0.01 0.00 0.00 0.00 0.00 0.00
0.01 0.00 0.00 0.00 0.00 0.00 0.00 0.00 0.00 0.00 0.00 0.00 0.00 0.00 0.00 0.01 0.02 0.01 0.01 0.01 0.01 0.01 0.00 0.00 0.00 0.00 0.00 0.01 0.01 0.01 0.01 0.01 0.01 0.02 0.02 0.02 0.01 0.01 0.00 0.00 0.00 0.00 0.00
0.01 0.01 0.00 0.00 0.00 0.00 0.00 0.00 0.00 0.00 0.00 0.00 0.00 0.00 0.01 0.01 0.02 0.01 0.01 0.01 0.01 0.02 0.01 0.01 0.02 0.02 0.02 0.01 0.01 0.01 0.01 0.01 0.00 0.00 0.01 0.02 0.02 0.01 0.01 0.00 0.00 0.00 0.00
0.02 0.01 0.00 0.00 0.00 0.00 0.00 0.00 0.00 0.00 0.00 0.00 0.00 0.01 0.01 0.01 0.01 0.01 0.01 0.01 0.03 0.05 0.06 0.03 0.04 0.05 0.02 0.03 0.02 0.01 0.01 0.01 0.00 0.00 0.01 0.02 0.02 0.02 0.01 0.00 0.00 0.00 0.00
0.03 0.02 0.01 0.00 0.00 0.00 0.00 0.00 0.00 0.00 0.01 0.01 0.02 0.04 0.03 0.01 0.02 0.02 0.01 0.01 0.03 0.05 0.06 0.06 0.07 0.08 0.04 0.03 0.04 0.03 0.02 0.01 0.01 0.00 0.00 0.01 0.01 0.01 0.01 0.00 0.00 0.00 0.00
0.04 0.02 0.01 0.00 0.00 0.00 0.00 0.00 0.00 0.00 0.00 0.01 0.01 0.04 0.03 0.01 0.01 0.01 0.01 0.01 0.03 0.05 0.07 0.09 0.10 0.12 0.12 0.11 0.09 0.05 0.03 0.02 0.01 0.01 0.00 0.00 0.00 0.00 0.00 0.00 0.01 0.00 0.00
0.05 0.04 0.02 0.01 0.00 0.00 0.00 0.00 0.00 0.00 0.00 0.00 0.00 0.01 0.01 0.01 0.01 0.01 0.02 0.02 0.04 0.06 0.09 0.12 0.13 0.13 0.13 0.11 0.08 0.05 0.03 0.02 0.01 0.01 0.01 0.00 0.00 0.00 0.00 0.00 0.00 0.00 0.00
0.05 0.05 0.04 0.02 0.01 0.00 0.00 0.00 0.00 0.00 0.01 0.01 0.01 0.01 0.01 0.01 0.01 0.01 0.02 0.03 0.04 0.06 0.09 0.12 0.13 0.11 0.09 0.08 0.06 0.03 0.02 0.01 0.01 0.01 0.01 0.00 0.00 0.00 0.00 0.00 0.00 0.00 0.00
0.05 0.07 0.07 0.06 0.05 0.03 0.02 0.01 0.01 0.01 0.02 0.01 0.02 0.01 0.01 0.01 0.02 0.02 0.02 0.03 0.03 0.04 0.06 0.09 0.09 0.09 0.06 0.06 0.05 0.02 0.01 0.01 0.01 0.00 0.00 0.00 0.00 0.00 0.00 0.00 0.00 0.00 0.00
0.14 0.12 0.10 0.08 0.07 0.06 0.05 0.04 0.04 0.03 0.03 0.03 0.03 0.04 0.04 0.03 0.04 0.04 0.03 0.03 0.03 0.03 0.04 0.05 0.06 0.06 0.04 0.03 0.02 0.02 0.01 0.00 0.00 0.00 0.00 0.00 0.00 0.00 0.00 0.00 0.00 0.00 0.00
0.22 0.17 0.15 0.12 0.13 0.14 0.10 0.09 0.07 0.06 0.06 0.08 0.09 0.09 0.08 0.07 0.06 0.06 0.06 0.04 0.03 0.02 0.02 0.02 0.03 0.04 0.03 0.02 0.02 0.01 0.01 0.00 0.00 0.00 0.00 0.00 0.00 0.00 0.00 0.00 0.00 0.00 0.00
0.28 0.27 0.25 0.19 0.20 0.18 0.14 0.13 0.11 0.11 0.12 0.13 0.13 0.13 0.13 0.12 0.09 0.08 0.07 0.05 0.03 0.02 0.01 0.01 0.01 0.01 0.02 0.01 0.01 0.01 0.01 0.00 0.00 0.00 0.00 0.00 0.00 0.00 0.00 0.00 0.00 0.00 0.00
0.27 0.31 0.29 0.28 0.27 0.21 0.20 0.24 0.22 0.19 0.17 0.17 0.18 0.17 0.16 0.15 0.12 0.10 0.09 0.05 0.03 0.02 0.01 0.01 0.01 0.01 0.01 0.01 0.01 0.01 0.00 0.00 0.00 0.00 0.00 0.00 0.00 0.00 0.00 0.00 0.00 0.00 0.00
0.20 0.22 0.20 0.23 0.26 0.31 0.37 0.34 0.27 0.24 0.22 0.21 0.23 0.21 0.19 0.17 0.14 0.12 0.08 0.05 0.02 0.01 0.01 0.00 0.00 0.00 0.00 0.00 0.00 0.00 0.00 0.00 0.00 0.00 0.00 0.00 0.00 0.00 0.00 0.00 0.00 0.00 0.00
0.13 0.16 0.19 0.23 0.31 0.35 0.35 0.34 0.33 0.31 0.29 0.29 0.26 0.22 0.19 0.15 0.12 0.09 0.06 0.03 0.02 0.01 0.00 0.00 0.00 0.00 0.00 0.00 0.00 0.00 0.00 0.00 0.00 0.00 0.00 0.00 0.00 0.00 0.00 0.00 0.00 0.00 0.00
MSLP
1013.58 1013.24 1013.04 1013.05 1013.26 1013.61 1014.03 1014.42 1014.73 1014.93 1015.03 1015.09 1015.16 1015.30 1015.53 1015.84 1016.20 1016.56 1016.88 1017.13 1017.30 1017.42 1017.51 1017.62 1017.75 1017.92 1018.10 1018.28 1018.43 1018.53 1018.57 1018.57 1018.57 1018.57 1018.60 1018.66 1018.74 1018.82 1018.89 1018.94 1018.97 1018.98 1019.01
1013.24 1013.00 1012.90 1012.99 1013.27 1013.67 1014.12 1014.54 1014.87 1015.09 1015.23 1015.33 1015.46 1015.66 1015.94 1016.28 1016.66 1017.01 1017.30 1017.51 1017.65 1017.73 1017.80 1017.89 1018.03 1018.20 1018.38 1018.55 1018.68 1018.74 1018.76 1018.74 1018.72 1018.73 1018.77 1018.86 1018.97 1019.09 1019.18 1019.24 1019.26 1019.27 1019.29
1012.77 1012.63 1012.63 1012.82 1013.18 1013.65 1014.15 1014.61 1014.97 1015.23 1015.41 1015.56 1015.74 1015.98 1016.29 1016.65 1017.02 1017.35 1017.60 1017.77 1017.87 1017.92 1017.98 1018.07 1018.21 1018.38 1018.56 1018.72 1018.82 1018.87 1018.87 1018.84 1018.82 1018.85 1018.93 1019.05 1019.20 1019.35 1019.48 1019.55 1019.58 1019.59 1019.59
1012.31 1012.26 1012.35 1012.63 1013.07 1013.61 1014.17 1014.66 1015.06 1015.36 1015.57 1015.76 1015.97 1016.23 1016.55 1016.90 1017.24 1017.54 1017.75 1017.88 1017.95 1018.00 1018.05 1018.15 1018.30 1018.48 1018.66 1018.81 1018.91 1018.95 1018.94 1018.92 1018.92 1018.97 1019.09 1019.26 1019.45 1019.64 1019.79 1019.88 1019.92 1019.92 1019.92
1011.99 1012.01 1012.18 1012.53 1013.04 1013.62 1014.21 1014.74 1015.16 1015.47 1015.70 1015.90 1016.12 1016.38 1016.69 1017.02 1017.33 1017.59 1017.77 1017.88 1017.93 1017.98 1018.05 1018.16 1018.33 1018.52 1018.72 1018.87 1018.97 1019.01 1019.01 1019.00 1019.03 1019.12 1019.28 1019.49 1019.72 1019.94 1020.11 1020.21 1020.25 1020.25 1020.25
1011.90 1011.97 1012.19 1012.59 1013.13 1013.73 1014.33 1014.85 1015.25 1015.56 1015.78 1015.98 1016.19 1016.44 1016.73 1017.03 1017.31 1017.54 1017.69 1017.79 1017.85 1017.90 1018.00 1018.14 1018.33 1018.55 1018.75 1018.92 1019.03 1019.08 1019.09 1019.11 1019.17 1019.30 1019.49 1019.73 1019.99 1020.22 1020.40 1020.50 1020.54 1020.54 1020.52
1012.05 1012.15 1012.41 1012.82 1013.36 1013.94 1014.50 1014.98 1015.36 1015.63 1015.83 1016.00 1016.20 1016.43 1016.70 1016.97 1017.23 1017.44 1017.58 1017.67 1017.74 1017.81 1017.93 1018.10 1018.31 1018.55 1018.77 1018.95 1019.07 1019.14 1019.18 1019.23 1019.32 1019.47 1019.69 1019.94 1020.21 1020.44 1020.61 1020.70 1020.73 1020.72 1020.71
1012.36 1012.49 1012.76 1013.17 1013.67 1014.21 1014.71 1015.12 1015.43 1015.66 1015.82 1015.98 1016.16 1016.38 1016.63 1016.90 1017.14 1017.33 1017.47 1017.57 1017.64 1017.73 1017.86 1018.05 1018.27 1018.52 1018.75 1018.94 1019.08 1019.17 1019.24 1019.32 1019.43 1019.60 1019.83 1020.08 1020.33 1020.54 1020.69 1020.77 1020.78 1020.77 1020.76
1012.69 1012.86 1013.14 1013.53 1013.99 1014.45 1014.87 1015.21 1015.45 1015.63 1015.77 1015.91 1016.09 1016.31 1016.57 1016.84 1017.08 1017.27 1017.41 1017.50 1017.58 1017.67 1017.79 1017.97 1018.19 1018.43 1018.66 1018.86 1019.01 1019.13 1019.23 1019.34 1019.48 1019.66 1019.89 1020.12 1020.35 1020.53 1020.65 1020.70 1020.70 1020.69 1020.68
1012.92 1013.13 1013.42 1013.79 1014.19 1014.59 1014.93 1015.19 1015.38 1015.52 1015.65 1015.80 1016.00 1016.25 1016.52 1016.80 1017.05 1017.25 1017.38 1017.47 1017.53 1017.61 1017.71 1017.87 1018.06 1018.28 1018.50 1018.70 1018.87 1019.01 1019.14 1019.28 1019.45 1019.64 1019.86 1020.08 1020.27 1020.42 1020.51 1020.54 1020.53 1020.52 1020.53
1012.95 1013.21 1013.51 1013.86 1014.22 1014.56 1014.83 1015.04 1015.20 1015.33 1015.47 1015.65 1015.89 1016.17 1016.48 1016.79 1017.05 1017.25 1017.39 1017.46 1017.51 1017.55 1017.62 1017.73 1017.89 1018.08 1018.28 1018.48 1018.66 1018.84 1019.00 1019.18 1019.37 1019.58 1019.79 1019.99 1020.16 1020.28 1020.34 1020.36 1020.36 1020.36 1020.39
1012.75 1013.05 1013.38 1013.72 1014.05 1014.34 1014.57 1014.76 1014.91 1015.06 1015.24 1015.46 1015.75 1016.08 1016.43 1016.76 1017.05 1017.26 1017.39 1017.45 1017.48 1017.49 1017.53 1017.60 1017.71 1017.87 1018.05 1018.25 1018.45 1018.65 1018.86 1019.07 1019.30 1019.52 1019.74 1019.93 1020.08 1020.18 1020.23 1020.25 1020.26 1020.28 1020.34
1012.37 1012.71 1013.06 1013.39 1013.70 1013.97 1014.19 1014.37 1014.54 1014.73 1014.96 1015.24 1015.57 1015.95 1016.33 1016.69 1017.00 1017.22 1017.37 1017.43 1017.45 1017.45 1017.46 1017.50 1017.58 1017.71 1017.88 1018.08 1018.30 1018.53 1018.78 1019.03 1019.29 1019.54 1019.76 1019.95 1020.10 1020.19 1020.25 1020.27 1020.30 1020.34 1020.43
1011.89 1012.26 1012.62 1012.95 1013.25 1013.51 1013.73 1013.94 1014.16 1014.39 1014.67 1015.00 1015.38 1015.78 1016.19 1016.57 1016.89 1017.14 1017.30 1017.39 1017.43 1017.44 1017.45 1017.49 1017.56 1017.67 1017.83 1018.03 1018.27 1018.53 1018.81 1019.10 1019.39 1019.66 1019.90 1020.10 1020.24 1020.34 1020.41 1020.45 1020.50 1020.57 1020.67
1011.41 1011.81 1012.17 1012.49 1012.78 1013.05 1013.30 1013.55 1013.81 1014.10 1014.42 1014.78 1015.18 1015.60 1016.01 1016.39 1016.73 1017.01 1017.21 1017.35 1017.44 1017.49 1017.53 1017.59 1017.66 1017.78 1017.94 1018.14 1018.39 1018.67 1018.98 1019.30 1019.61 1019.90 1020.15 1020.35 1020.51 1020.62 1020.70 1020.76 1020.83 1020.92 1021.03
1011.03 1011.41 1011.76 1012.08 1012.37 1012.66 1012.96 1013.25 1013.57 1013.90 1014.26 1014.64 1015.02 1015.42 1015.81 1016.19 1016.54 1016.84 1017.10 1017.31 1017.48 1017.61 1017.72 1017.81 1017.92 1018.05 1018.21 1018.42 1018.67 1018.95 1019.27 1019.59 1019.92 1020.21 1020.47 1020.68 1020.84 1020.95 1021.05 1021.13 1021.21 1021.30 1021.41
1010.75 1011.11 1011.44 1011.75 1012.06 1012.39 1012.74 1013.10 1013.48 1013.85 1014.23 1014.59 1014.95 1015.31 1015.66 1016.01 1016.36 1016.70 1017.02 1017.32 1017.58 1017.80 1017.99 1018.15 1018.29 1018.44 1018.61 1018.80 1019.04 1019.31 1019.62 1019.93 1020.25 1020.53 1020.78 1020.99 1021.14 1021.26 1021.36 1021.44 1021.52 1021.62 1021.71
1010.55 1010.88 1011.19 1011.50 1011.84 1012.22 1012.64 1013.08 1013.52 1013.94 1014.33 1014.68 1015.00 1015.29 1015.59 1015.90 1016.24 1016.61 1016.99 1017.37 1017.73 1018.05 1018.33 1018.55 1018.73 1018.89 1019.06 1019.24 1019.45 1019.69 1019.97 1020.26 1020.55 1020.81 1021.04 1021.22 1021.37 1021.47 1021.56 1021.63 1021.71 1021.79 1021.87
1010.37 1010.67 1010.95 1011.28 1011.66 1012.11 1012.62 1013.15 1013.68 1014.16 1014.57 1014.90 1015.17 1015.41 1015.64 1015.91 1016.23 1016.61 1017.04 1017.49 1017.94 1018.34 1018.69 1018.97 1019.18 1019.35 1019.50 1019.65 1019.83 1020.04 1020.28 1020.53 1020.78 1021.01 1021.21 1021.36 1021.48 1021.56 1021.62 1021.68 1021.74 1021.80 1021.85
1010.16 1010.42 1010.69 1011.03 1011.46 1012.00 1012.61 1013.26 1013.88 1014.43 1014.88 1015.21 1015.45 1015.64 1015.82 1016.05 1016.35 1016.73 1017.19 1017.69 1018.19 1018.65 1019.05 1019.36 1019.58 1019.75 1019.88 1020.01 1020.15 1020.33 1020.53 1020.74 1020.96 1021.15 1021.31 1021.42 1021.50 1021.55 1021.58 1021.61 1021.64 1021.67 1021.71
1009.91 1010.11 1010.36 1010.72 1011.22 1011.85 1012.57 1013.33 1014.07 1014.70 1015.21 1015.56 1015.80 1015.96 1016.11 1016.31 1016.58 1016.96 1017.43 1017.95 1018.47 1018.96 1019.37 1019.69 1019.92 1020.08 1020.20 1020.30 1020.42 1020.57 1020.75 1020.94 1021.12 1021.28 1021.40 1021.47 1021.51 1021.52 1021.51 1021.50 1021.50 1021.50 1021.51
1009.63 1009.77 1009.99 1010.36 1010.91 1011.62 1012.45 1013.33 1014.17 1014.91 1015.49 1015.89 1016.15 1016.32 1016.47 1016.65 1016.91 1017.28 1017.74 1018.25 1018.77 1019.26 1019.66 1019.98 1020.20 1020.35 1020.46 1020.56 1020.68 1020.82 1020.99 1021.17 1021.33 1021.47 1021.56 1021.59 1021.59 1021.55 1021.51 1021.46 1021.42 1021.39 1021.37
1009.39 1009.46 1009.64 1010.00 1010.57 1011.34 1012.25 1013.22 1014.16 1014.99 1015.65 1016.12 1016.44 1016.65 1016.82 1017.01 1017.28 1017.64 1018.09 1018.58 1019.08 1019.54 1019.93 1020.23 1020.44 1020.59 1020.70 1020.82 1020.96 1021.12 1021.31 1021.49 1021.66 1021.79 1021.85 1021.86 1021.82 1021.75 1021.66 1021.57 1021.49 1021.43 1021.38
1009.30 1009.28 1009.40 1009.72 1010.29 1011.07 1012.02 1013.04 1014.05 1014.94 1015.68 1016.23 1016.61 1016.89 1017.11 1017.35 1017.64 1018.00 1018.44 1018.92 1019.39 1019.82 1020.18 1020.46 1020.67 1020.83 1020.97 1021.13 1021.31 1021.51 1021.74 1021.95 1022.13 1022.26 1022.32 1022.31 1022.24 1022.13 1022.00 1021.88 1021.76 1021.66 1021.58
1009.43 1009.33 1009.36 1009.63 1010.14 1010.90 1011.83 1012.85 1013.87 1014.81 1015.59 1016.21 1016.67 1017.02 1017.31 1017.61 1017.94 1018.33 1018.78 1019.24 1019.69 1020.10 1020.44 1020.71 1020.93 1021.11 1021.30 1021.50 1021.73 1022.00 1022.27 1022.52 1022.73 1022.86 1022.92 1022.90 1022.81 1022.68 1022.52 1022.36 1022.20 1022.06 1021.94
1009.85 1009.65 1009.61 1009.80 1010.23 1010.91 1011.77 1012.74 1013.73 1014.65 1015.45 1016.10 1016.63 1017.05 1017.43 1017.80 1018.19 1018.63 1019.09 1019.56 1020.00 1020.39 1020.73 1021.00 1021.23 1021.45 1021.67 1021.93 1022.22 1022.53 1022.85 1023.14 1023.37 1023.53 1023.58 1023.56 1023.45 1023.30 1023.12 1022.93 1022.74 1022.56 1022.38
Thickness
5791 5792 5790 5789 5788 5786 5784 5783 5781 5779 5778 5776 5775 5774 5772 5770 5768 5766 5764 5762 5760 5758 5756 5754 5752 5750 5748 5747 5745 5743 5742 5741 5740 5740 5740 5739 5739 5739 5738 5737 5736 5735 5734
5797 5792 5789 5788 5785 5783 5782 5780 5778 5776 5774 5773 5771 5770 5769 5767 5765 5763 5760 5758 5756 5754 5752 5750 5748 5747 5745 5743 5741 5740 5739 5738 5737 5737 5737 5736 5736 5735 5734 5732 5731 5730 5730
5796 5792 5788 5786 5784 5781 5779 5777 5775 5773 5771 5769 5768 5767 5765 5763 5761 5759 5756 5754 5752 5750 5748 5746 5745 5743 5741 5740 5738 5737 5736 5735 5735 5734 5733 5733 5732 5731 5730 5728 5727 5726 5725
5796 5791 5788 5785 5782 5780 5777 5775 5773 5770 5768 5766 5765 5763 5761 5759 5757 5755 5753 5750 5748 5747 5745 5743 5742 5740 5738 5736 5735 5734 5733 5733 5733 5732 5731 5729 5728 5727 5726 5724 5723 5721 5721
5793 5790 5786 5784 5781 5778 5776 5773 5771 5768 5766 5764 5762 5760 5759 5756 5754 5752 5750 5748 5746 5744 5742 5741 5739 5737 5735 5733 5732 5731 5731 5731 5731 5730 5728 5726 5724 5723 5722 5720 5719 5717 5717
5791 5788 5785 5782 5780 5777 5775 5772 5769 5767 5765 5762 5760 5758 5756 5754 5752 5750 5748 5746 5744 5742 5741 5739 5737 5735 5733 5731 5729 5729 5730 5729 5728 5727 5725 5723 5721 5720 5718 5716 5715 5714 5713
5789 5786 5783 5781 5779 5776 5774 5771 5769 5766 5764 5762 5760 5758 5755 5753 5751 5749 5747 5745 5743 5741 5740 5738 5736 5734 5731 5728 5727 5727 5728 5727 5726 5724 5722 5720 5719 5718 5715 5713 5712 5711 5710
5789 5785 5782 5780 5778 5776 5774 5771 5769 5766 5764 5762 5760 5757 5755 5753 5751 5749 5747 5745 5743 5741 5739 5737 5735 5733 5730 5726 5724 5725 5726 5725 5723 5722 5720 5718 5717 5715 5713 5711 5710 5708 5707
5789 5785 5781 5779 5777 5776 5774 5772 5769 5767 5764 5762 5760 5758 5756 5753 5751 5749 5747 5745 5743 5741 5739 5737 5735 5732 5728 5724 5722 5722 5723 5723 5721 5719 5718 5716 5714 5713 5711 5709 5707 5706 5704
5787 5784 5782 5779 5777 5775 5773 5771 5770 5767 5765 5763 5760 5758 5756 5753 5751 5749 5747 5745 5743 5741 5739 5736 5734 5731 5727 5723 5720 5721 5721 5720 5718 5717 5715 5714 5711 5709 5707 5705 5704 5702 5700
5783 5783 5782 5779 5777 5775 5773 5771 5769 5767 5765 5763 5761 5759 5756 5754 5751 5749 5747 5744 5742 5739 5737 5734 5732 5729 5726 5722 5719 5719 5719 5718 5716 5713 5711 5710 5708 5706 5703 5702 5701 5699 5697
5781 5781 5782 5780 5777 5775 5773 5771 5769 5767 5765 5763 5761 5758 5756 5753 5751 5748 5745 5743 5740 5737 5734 5731 5729 5727 5724 5721 5719 5717 5717 5715 5712 5709 5708 5706 5704 5702 5700 5698 5697 5695 5694
5787 5785 5782 5781 5779 5776 5775 5771 5769 5767 5765 5763 5761 5758 5756 5753 5750 5747 5744 5741 5738 5734 5731 5728 5726 5724 5722 5720 5718 5716 5713 5711 5708 5705 5703 5701 5699 5698 5696 5694 5693 5692 5690
5789 5788 5786 5783 5781 5778 5776 5772 5770 5767 5765 5764 5761 5759 5756 5753 5750 5747 5744 5740 5736 5732 5728 5724 5722 5720 5719 5718 5717 5714 5710 5707 5704 5701 5698 5696 5694 5692 5690 5689 5687 5686 5686
5790 5790 5788 5786 5783 5781 5777 5774 5771 5769 5766 5764 5762 5759 5757 5754 5750 5747 5743 5739 5734 5729 5724 5720 5717 5715 5714 5714 5713 5710 5706 5702 5699 5696 5693 5691 5688 5686 5684 5682 5681 5680 5679
5793 5791 5790 5788 5786 5783 5779 5776 5773 5770 5766 5763 5761 5759 5757 5754 5750 5746 5741 5735 5731 5726 5722 5717 5712 5709 5708 5707 5706 5703 5699 5696 5692 5690 5688 5685 5682 5680 5678 5676 5675 5674 5672
5797 5796 5792 5791 5788 5785 5781 5778 5775 5771 5766 5763 5761 5758 5755 5752 5748 5743 5738 5732 5728 5723 5719 5713 5708 5704 5701 5699 5697 5694 5691 5688 5685 5683 5681 5679 5677 5674 5671 5669 5667 5665 5664
5798 5796 5794 5793 5789 5786 5782 5778 5775 5771 5767 5763 5760 5756 5752 5749 5745 5740 5734 5729 5725 5720 5715 5710 5705 5699 5694 5691 5688 5686 5683 5680 5678 5676 5674 5672 5670 5667 5664 5662 5659 5657 5655
5796 5794 5792 5792 5787 5783 5780 5776 5772 5768 5764 5761 5757 5753 5749 5745 5740 5736 5730 5725 5721 5716 5711 5706 5700 5695 5689 5685 5682 5679 5676 5673 5671 5669 5667 5665 5663 5660 5657 5654 5651 5649 5647
5793 5791 5789 5787 5783 5779 5774 5769 5765 5761 5757 5754 5751 5747 5744 5739 5735 5730 5725 5720 5716 5711 5705 5701 5694 5690 5685 5681 5679 5675 5671 5669 5666 5663 5661 5658 5655 5653 5651 5647 5644 5641 5639
5788 5784 5786 5783 5780 5775 5769 5763 5757 5751 5748 5745 5742 5739 5735 5731 5727 5723 5718 5713 5709 5704 5699 5695 5690 5684 5679 5677 5672 5666 5665 5664 5661 5658 5654 5651 5648 5646 5643 5640 5637 5634 5632
5788 5785 5781 5778 5777 5774 5770 5763 5755 5747 5740 5736 5733 5729 5726 5722 5719 5715 5711 5705 5701 5696 5692 5688 5685 5678 5673 5670 5666 5660 5655 5653 5653 5652 5648 5645 5641 5639 5635 5632 5629 5627 5624
5787 5786 5781 5776 5774 5770 5764 5756 5747 5739 5732 5726 5721 5717 5714 5712 5709 5705 5702 5697 5693 5689 5684 5680 5677 5673 5666 5662 5660 5655 5648 5644 5641 5641 5639 5636 5633 5630 5626 5623 5620 5618 5615
5783 5782 5778 5772 5769 5764 5760 5753 5744 5735 5726 5720 5714 5708 5704 5701 5699 5695 5691 5687 5683 5679 5676 5673 5669 5666 5661 5655 5651 5648 5643 5639 5633 5628 5627 5625 5623 5619 5615 5612 5609 5606 5603
5778 5776 5771 5767 5761 5757 5753 5746 5738 5728 5720 5713 5706 5699 5694 5690 5687 5683 5680 5677 5672 5669 5666 5663 5659 5656 5652 5647 5642 5638 5634 5628 5624 5619 5614 5610 5608 5605 5601 5597 5595 5592 5589
5767 5766 5762 5756 5750 5746 5742 5735 5728 5720 5712 5704 5697 5689 5683 5679 5675 5672 5669 5665 5661 5658 5655 5651 5648 5644 5640 5636 5631 5627 5622 5617 5612 5607 5601 5596 5592 5590 5587 5582 5578 5574 5570